sat.trackr.live / text

‹ back to catalog

STARLINK-3862

NORAD 52471 · 2022-049W

PAYLOAD ACTIVE UNKNOWN

§ Identity

Operator
Country
US
Launch date
2022-05-06
Launch site
AFETR
Launch vehicle
Mass (kg)
RCS (m²)

Purposes: comms

External: N2YO · Heavens-Above · Gunter

§ Orbital elements

Epoch: 2026-09-20T00:00:33.194016Z

Period
94.01 min
Inclination
53.1572°
Eccentricity
0.0001154
Mean motion
15.31707777 rev/d
Perigee alt
469.9 km
Apogee alt
471.5 km
Semi-major
6,848.9 km
B*
3.4681e-5
RAAN
252.1310°
Arg perigee
70.0560°
Mean anomaly
290.0565°
Rev number
24,178

§ Raw data

STARLINK-38621 52471U 22049W   26263.00038419  .00000711  00000+0  34681-4 0  99942 52471  53.1572 252.1310 0001154  70.0560 290.0565 15.31707777241781

JSON: /api/v1/satellites/52471 · /tle

For live sub-satellite position, see the globe view (requires WebGL).

§ Visibility from observer

Set your observer location to see the next 7 days of passes ≥ 10°. The values pass through the URL so the page stays shareable.

No JS? Fill the form by hand. The geolocation button needs JavaScript.